Heath, OH

3:16 PM EST on December 08, 2016 (GMT -0500)
Newark Heath

Weather History for KVTA - September, 2013

Change the Weather History Date:

Friday, September 20, 2013

  Actual Average Record
Temperature  
Mean Temperature 75 °F -  
Max Temperature 86 °F 76 °F 90 °F (1978)
Min Temperature 66 °F 53 °F 33 °F (1937)
Cooling Degree Days 10    
Growing Degree Days 25 (Base 50)    
Moisture  
Dew Point 66 °F    
Average Humidity 81    
Maximum Humidity 94    
Minimum Humidity 55    
Precipitation  
Precipitation 0.06 in - - ()
Sea Level Pressure  
Sea Level Pressure 29.92 in    
Wind  
Wind Speed 3 mph (SSW)    
Max Wind Speed 13 mph    
Max Gust Speed 17 mph    
Visibility 6 miles    
Events Rain , Thunderstorm    
Averages and records for this station are not official NWS values.
T = Trace of Precipitation, MM = Missing Value Source: NWS Daily Summary

Daily Weather History Graph

Daily Weather History Graph

Search for Another Location

Airport or City:

Trip Planner

Search our weather history database for the weather conditions in past years. The results will help you decide how hot, cold, wet, or windy it might be!

Date:

Astronomy

Sep. 20, 2013 Rise Set
Actual Time 7:15 AM EDT 7:29 PM EDT
Civil Twilight 6:48 AM EDT 7:56 PM EDT
Nautical Twilight 6:16 AM EDT 8:28 PM EDT
Astronomical Twilight 5:44 AM EDT 9:00 PM EDT
Moon 8:02 PM EDT (9/20) 8:29 AM EDT (9/20)
Length of Visible Light 13h 08m
Length of Day
12h 14m
Full, 98% of the Moon is Illuminated
Sep 20
Full
Sep 26
Last Quarter
Oct 4
New
Oct 11
First Quarter
Oct 18
Full

Hourly Weather History & Observations

Time (EDT) Temp. Heat Index Dew Point Humidity Pressure Visibility Wind Dir Wind Speed Gust Speed Precip Events Conditions
12:52 AM 68.0 °F - 64.4 °F 88% 30.03 in 3.0 mi Calm Calm - N/A   Overcast
12:54 AM 68.0 °F - 64.9 °F 90% 30.01 in 3.0 mi Calm Calm - N/A   Overcast
1:54 AM 68.0 °F - 64.9 °F 90% 30.01 in 4.0 mi Calm Calm - N/A   Overcast
2:01 AM 68.0 °F - 64.4 °F 88% 30.03 in 4.0 mi Calm Calm - N/A   Overcast
2:54 AM 68.0 °F - 64.9 °F 90% 30.01 in 4.0 mi Calm Calm - N/A   Overcast
3:54 AM 68.0 °F - 64.9 °F 90% 29.99 in 4.0 mi South 3.5 mph - N/A   Overcast
4:54 AM 66.9 °F - 64.9 °F 93% 29.97 in 2.5 mi Calm Calm - N/A   Scattered Clouds
5:03 AM 66.2 °F - 64.4 °F 94% 29.98 in 3.0 mi South 3.5 mph - N/A   Scattered Clouds
5:54 AM 66.9 °F - 64.9 °F 93% 29.97 in 2.5 mi SSW 3.5 mph - N/A   Mostly Cloudy
6:03 AM 66.2 °F - 64.4 °F 94% 29.98 in 2.5 mi SW 3.5 mph - N/A   Mostly Cloudy
6:23 AM 68.0 °F - 64.4 °F 88% 29.98 in 2.5 mi SSW 4.6 mph - N/A   Overcast
6:54 AM 68.0 °F - 64.9 °F 90% 29.97 in 2.5 mi Calm Calm - N/A   Overcast
7:28 AM 68.0 °F - 64.4 °F 88% 29.99 in 1.2 mi SSE 3.5 mph - N/A   Overcast
7:54 AM 68.0 °F - 66.0 °F 93% 29.98 in 1.5 mi South 3.5 mph - N/A   Overcast
8:35 AM 69.8 °F - 66.2 °F 88% 29.98 in 2.0 mi South 3.5 mph - N/A   Overcast
8:51 AM 69.8 °F - 66.2 °F 88% 29.99 in 3.0 mi SSW 5.8 mph - N/A   Overcast
8:54 AM 70.0 °F - 66.0 °F 87% 29.97 in 3.0 mi SSW 5.8 mph - N/A   Overcast
9:37 AM 73.4 °F - 66.2 °F 78% 29.98 in 7.0 mi SSW 8.1 mph - N/A   Scattered Clouds
9:54 AM 73.9 °F - 66.9 °F 79% 29.96 in 8.0 mi South 6.9 mph - N/A   Partly Cloudy
10:54 AM 78.1 °F - 66.9 °F 68% 29.94 in 10.0 mi SW 9.2 mph - N/A   Clear
11:54 AM 82.0 °F 84.1 °F 66.0 °F 58% 29.93 in 10.0 mi SW 11.5 mph 17.3 mph N/A   Clear
12:54 PM 84.0 °F 86.3 °F 66.0 °F 55% 29.91 in 10.0 mi SW 10.4 mph - N/A   Partly Cloudy
1:54 PM 84.9 °F 87.6 °F 66.9 °F 55% 29.88 in 10.0 mi SW 8.1 mph - N/A   Scattered Clouds
2:54 PM 84.0 °F 86.3 °F 66.0 °F 55% 29.86 in 10.0 mi South 10.4 mph - N/A   Mostly Cloudy
3:54 PM 82.9 °F 85.4 °F 66.9 °F 58% 29.83 in 10.0 mi South 11.5 mph 16.1 mph N/A   Overcast
4:34 PM 75.2 °F - 69.8 °F 83% 29.85 in 9.0 mi South 9.2 mph - 0.00 in Rain , Thunderstorm Light Rain
4:54 PM 78.1 °F - 70.0 °F 76% 29.83 in 7.0 mi South 8.1 mph - 0.00 in Rain , Thunderstorm Light Thunderstorms and Rain
5:34 PM 75.2 °F - 69.8 °F 83% 29.83 in 10.0 mi East 3.5 mph - 0.06 in   Mostly Cloudy
5:54 PM 77.0 °F - 71.1 °F 82% 29.82 in 10.0 mi Calm Calm - 0.06 in   Clear
6:54 PM 79.0 °F - 69.1 °F 72% 29.81 in 10.0 mi South 5.8 mph - N/A   Clear
7:54 PM 77.0 °F - 68.0 °F 74% 29.81 in 10.0 mi South 5.8 mph - N/A   Mostly Cloudy
8:54 PM 75.0 °F - 68.0 °F 79% 29.82 in 10.0 mi South 6.9 mph - N/A   Partly Cloudy
9:54 PM 73.9 °F - 66.9 °F 79% 29.83 in 10.0 mi West 12.7 mph - N/A   Overcast
10:54 PM 71.1 °F - 66.0 °F 84% 29.82 in 10.0 mi WSW 4.6 mph - N/A   Scattered Clouds
11:54 PM 70.0 °F - 66.0 °F 87% 29.79 in 10.0 mi SSW 3.5 mph - N/A   Mostly Cloudy